SCP
1 0 0 1 0 0 0 0 0 0 0 0 0 0 0 0 0 0 0 0 0 0
2 1 0 1 0 0 0 0 0 0 0 0 0 0 0 0 0 0 0 0 0 0
0 0 0 0 0 0 0 0 0 0 0 0 0 0 0 0 0 0 0 0 0 0
0 0 0 0 0 0 0 0 0 0 0 0 0 0 0 0 0 0 0 0 0 0
0 0 0 0 0 0 0 0 0 0 0 0 0 0 0 0 0 0 0 0 0 0
0 0 0 0 0 0 0 0 0 0 0 0 0 0 0 0 0 0 0 0 0 0
0 0 0 0 0 0 0 0 0 0 0 0 0 0 0 0 0 0 0 0 0 0
0 0 0 0 0 0 0 0 0 0 0 0 0 0 0 0 0 0 0 0 0 0
0 0 0 0 0 0 0 0 0 0 0 0 0 0 0 0 0 0 0 0 0 0
0 0 0 0 0 0 0 0 0 0 0 0 0 0 0 0 0 0 0 0 0 0
0 0 0 0 0 0 0 0 0 0 0 0 0 0 0 0 0 0 0 0 0 0
0 0 0 0 0 0 0 0 0 0 0 0 0 0 0 0 0 0 0 0 0 0
0 0 0 0 0 0 0 0 0 0 0 0 0 0 0 0 0 0 0 0 0 0
0 0 0 0 0 0 0 0 0 0 0 0 0 0 0 0 0 0 0 0 0 0
Wind_Speed_500mb
42 38 37 26 29 23 12 7 10 19 27 35 39 40 44 53 44 50 42 52 53 47
38 37 36 34 23 25 17 9 13 23 32 37 40 38 39 45 45 46 56 55 44 47
42 39 31 33 25 16 5 13 22 28 32 37 39 38 42 52 56 57 50 50 64 65
36 29 20 18 14 6 10 19 27 32 37 35 37 40 49 57 59 51 61 58 48 49
28 25 23 15 9 10 17 25 32 35 39 41 40 45 52 57 57 50 47 53 54 41
23 17 13 7 12 17 23 32 39 42 44 46 45 48 51 43 43 49 54 52 44 48
19 12 4 9 17 25 33 40 42 43 49 50 45 40 46 48 54 57 51 44 38 39
6 1 7 17 24 33 39 43 49 52 47 42 31 39 45 52 51 47 42 37 37 34
0 6 14 23 31 39 48 53 50 44 37 28 35 43 43 50 48 40 39 36 45 44
6 13 23 32 38 44 47 46 40 31 30 34 35 41 47 51 42 37 35 37 43 47
15 22 29 35 38 42 39 35 34 31 27 33 37 42 47 48 40 30 30 37 36 36
22 29 33 36 37 38 40 33 23 21 27 31 34 42 43 49 42 31 36 33 25 32
26 29 30 32 37 32 27 24 27 27 27 28 28 36 45 46 36 32 39 34 25 29
27 26 26 32 29 27 26 28 29 30 28 20 26 37 38 41 35 35 46 40 27 36
Wind_Direction_500mb
172 148 129 148 146 152 185 251 337 345 339 335 334 332 326 326 328 323 316 311 307 315
137 141 165 160 168 174 165 99 309 326 326 325 326 319 314 313 313 309 306 314 318 303
156 168 163 159 176 187 245 309 325 327 319 320 321 314 312 306 306 312 318 304 303 307
166 163 153 165 195 244 305 317 325 321 322 317 311 308 303 303 306 306 299 307 307 299
143 158 167 190 231 292 310 319 319 319 315 311 306 303 300 300 304 306 297 294 305 308
149 174 194 229 288 305 311 314 317 315 312 309 304 301 305 305 294 294 306 312 304 304
168 188 251 293 301 310 313 318 316 312 308 311 312 310 301 304 306 313 316 314 317 321
95 55 286 299 311 314 318 313 312 313 317 320 326 302 302 306 313 315 316 320 323 312
305 350 300 310 313 316 313 314 317 320 329 310 302 306 313 322 325 324 322 326 314 318
321 310 315 315 317 313 317 320 326 326 308 315 316 312 316 319 322 321 334 325 314 314
324 323 318 318 316 318 319 313 310 316 326 318 313 314 318 320 327 329 321 304 314 319
323 322 321 321 317 312 312 321 336 323 312 313 316 316 318 321 327 326 319 320 328 320
331 325 333 317 318 329 338 342 326 327 321 318 322 314 316 322 329 331 322 324 330 347
331 342 328 329 344 343 347 344 342 332 335 336 317 318 321 326 325 324 328 322 330 332
Wind_Speed_850mb
42 38 37 26 29 23 12 7 10 19 27 35 39 40 44 53 44 50 42 52 53 47
38 37 36 34 23 25 17 9 13 23 32 37 40 38 39 45 45 46 56 55 44 47
42 39 31 33 25 16 5 13 22 28 32 37 39 38 42 52 56 57 50 50 64 65
36 29 20 18 14 6 10 19 27 32 37 35 37 40 49 57 59 51 61 58 48 49
28 25 23 15 9 10 17 25 32 35 39 41 40 45 52 57 57 50 47 53 54 41
23 17 13 7 12 17 23 32 39 42 44 46 45 48 51 43 43 49 54 52 44 48
19 12 4 9 17 25 33 40 42 43 49 50 45 40 46 48 54 57 51 44 38 39
6 1 7 17 24 33 39 43 49 52 47 42 31 39 45 52 51 47 42 37 37 34
0 6 14 23 31 39 48 53 50 44 37 28 35 43 43 50 48 40 39 36 45 44
6 13 23 32 38 44 47 46 40 31 30 34 35 41 47 51 42 37 35 37 43 47
15 22 29 35 38 42 39 35 34 31 27 33 37 42 47 48 40 30 30 37 36 36
22 29 33 36 37 38 40 33 23 21 27 31 34 42 43 49 42 31 36 33 25 32
26 29 30 32 37 32 27 24 27 27 27 28 28 36 45 46 36 32 39 34 25 29
27 26 26 32 29 27 26 28 29 30 28 20 26 37 38 41 35 35 46 40 27 36
Wind_Direction_850mb
172 148 129 148 146 152 185 251 337 345 339 335 334 332 326 326 328 323 316 311 307 315
137 141 165 160 168 174 165 99 309 326 326 325 326 319 314 313 313 309 306 314 318 303
156 168 163 159 176 187 245 309 325 327 319 320 321 314 312 306 306 312 318 304 303 307
166 163 153 165 195 244 305 317 325 321 322 317 311 308 303 303 306 306 299 307 307 299
143 158 167 190 231 292 310 319 319 319 315 311 306 303 300 300 304 306 297 294 305 308
149 174 194 229 288 305 311 314 317 315 312 309 304 301 305 305 294 294 306 312 304 304
168 188 251 293 301 310 313 318 316 312 308 311 312 310 301 304 306 313 316 314 317 321
95 55 286 299 311 314 318 313 312 313 317 320 326 302 302 306 313 315 316 320 323 312
305 350 300 310 313 316 313 314 317 320 329 310 302 306 313 322 325 324 322 326 314 318
321 310 315 315 317 313 317 320 326 326 308 315 316 312 316 319 322 321 334 325 314 314
324 323 318 318 316 318 319 313 310 316 326 318 313 314 318 320 327 329 321 304 314 319
323 322 321 321 317 312 312 321 336 323 312 313 316 316 318 321 327 326 319 320 328 320
331 325 333 317 318 329 338 342 326 327 321 318 322 314 316 322 329 331 322 324 330 347
331 342 328 329 344 343 347 344 342 332 335 336 317 318 321 326 325 324 328 322 330 332